"startDT [UTC]","vpos","CH4 [ppm]","stdev(CH4) [ppm]","CO2 [ppm]","stdev(CO2) [ppm]","H2O_reported [%]","stdev(H2O_reported)","CavityPressure [torr]","CavityTemp [C]","OutletValve","CH4_dry [ppm]","CO2_dry [ppm]","DasTemp [C]","EtalonTemp [C]","WarmBoxTemp [C]","MPVPosition","T_ECpre [C]","T_EC1 [C]","T_EC2 [C]","p_inlet [hPa]","p_in [hPa]","p_out [hPa]","T_inlet [C]","RH_inlet [%]","dwpt_inlet [C]","T_vent [C]","RH_vent [%]","dwpt_vent [C]","flow_vent [l min-1]","flow_inlet [l min-1]","dwpt_sample [C]","T_room [C]"
2015-07-08 00:00:00,0.0,1.89370,0.00044,390.766,0.185,0.9391,0.0017,139.997,45.000,34230.04206,1.91171,395.316,33.371,45.068,45.000,0.00,0.10,-272.72,-272.78,-8,985,-5,23.7,24.6,2.3,23.5,25.2,2.5,5.73,1.90,0.3,27.8
2015-07-08 00:01:00,0.0,1.89401,0.00053,390.600,0.129,0.9424,0.0014,139.999,45.000,34231.70438,1.91212,395.156,33.375,45.068,45.000,0.00,0.10,-272.73,-272.79,-8,986,-5,23.8,24.7,2.4,23.5,25.3,2.5,5.73,1.89,0.3,27.8
2015-07-08 00:02:00,0.0,1.89375,0.00050,390.785,0.081,0.9426,0.0019,139.999,45.000,34232.23885,1.91186,395.347,33.375,45.068,45.000,0.00,0.10,-272.73,-272.80,-8,986,-5,23.7,24.7,2.3,23.5,25.4,2.6,5.73,1.88,0.3,27.8
2015-07-08 00:03:00,0.0,1.89478,0.00073,390.750,0.062,0.9413,0.0018,140.003,45.000,34233.20848,1.91279,395.314,33.377,45.068,45.000,0.00,0.10,-272.72,-272.79,-8,986,-5,23.7,24.7,2.3,23.5,25.3,2.6,5.73,1.88,0.3,27.7
2015-07-08 00:04:00,0.0,1.89473,0.00058,390.721,0.110,0.9414,0.0015,140.002,45.000,34232.93119,1.91286,395.282,33.377,45.068,45.000,0.00,0.10,-272.73,-272.79,-8,986,-5,23.8,24.7,2.4,23.5,25.3,2.5,5.73,1.88,0.3,27.8
2015-07-08 00:05:00,0.0,1.89418,0.00051,390.535,0.209,0.9475,0.0026,139.998,45.000,34231.01755,1.91241,395.133,33.377,45.068,45.000,0.00,0.10,-272.73,-272.79,-8,986,-5,23.8,24.8,2.5,23.5,25.4,2.6,5.73,1.89,0.3,27.7
2015-07-08 00:06:00,0.0,1.89412,0.00032,390.260,0.059,0.9518,0.0031,139.999,45.000,34230.81488,1.91240,394.859,33.374,45.068,45.000,0.00,0.10,-272.73,-272.79,-8,986,-5,23.7,25.0,2.5,23.5,25.6,2.7,5.73,1.91,0.3,27.8
2015-07-08 00:07:00,0.0,1.89365,0.00028,390.231,0.127,0.9574,0.0023,139.999,45.000,34233.77809,1.91207,394.870,33.362,45.068,45.000,0.00,0.10,-272.73,-272.78,-8,986,-5,23.7,25.1,2.6,23.5,25.8,2.8,5.73,1.92,0.3,27.8
2015-07-08 00:08:00,0.0,1.89335,0.00058,390.398,0.137,0.9605,0.0013,140.001,45.000,34232.79060,1.91176,395.033,33.366,45.068,45.000,0.00,0.10,-272.73,-272.79,-8,986,-5,23.7,25.2,2.6,23.5,25.9,2.8,5.73,1.93,0.3,27.7
2015-07-08 00:09:00,0.0,1.89336,0.00051,390.523,0.127,0.9615,0.0018,139.999,45.000,34230.16443,1.91189,395.182,33.349,45.068,45.000,0.00,0.10,-272.73,-272.79,-8,986,-5,23.7,25.2,2.6,23.5,25.9,2.8,5.73,1.94,0.3,27.8
2015-07-08 00:10:00,0.0,1.89337,0.00031,390.575,0.077,0.9636,0.0019,140.002,45.000,34230.27132,1.91191,395.244,33.345,45.068,45.000,0.00,0.10,-272.73,-272.79,-8,986,-5,23.7,25.2,2.7,23.5,25.9,2.9,5.73,1.93,0.3,27.8
2015-07-08 00:11:00,0.0,1.89369,0.00045,390.774,0.109,0.9658,0.0023,139.998,45.000,34227.49920,1.91223,395.451,33.345,45.068,45.000,0.00,0.10,-272.73,-272.79,-8,986,-5,23.7,25.3,2.7,23.5,26.0,2.9,5.73,1.92,0.3,27.8
2015-07-08 00:12:00,0.0,1.89365,0.00051,390.719,0.050,0.9665,0.0019,140.004,45.000,34229.09182,1.91220,395.402,33.333,45.068,45.000,0.00,0.10,-272.73,-272.79,-8,986,-5,23.8,25.4,2.8,23.5,26.1,2.9,5.73,1.91,0.3,27.8
2015-07-08 00:13:00,0.0,1.89361,0.00053,390.724,0.054,0.9652,0.0016,140.000,45.000,34225.58699,1.91214,395.404,33.357,45.068,45.000,0.00,0.10,-272.73,-272.78,-8,985,-5,23.7,25.3,2.7,23.5,26.0,2.9,5.73,1.89,0.3,27.8
2015-07-08 00:14:00,0.0,1.89382,0.00033,390.866,0.034,0.9646,0.0018,140.001,45.000,34225.57459,1.91239,395.539,33.356,45.068,45.000,0.00,0.10,-272.73,-272.79,-8,985,-5,23.8,25.3,2.7,23.5,26.0,2.9,5.73,1.89,0.3,27.8
2015-07-08 00:15:00,0.0,1.89353,0.00031,390.917,0.042,0.9633,0.0016,140.005,45.000,34227.68857,1.91203,395.587,33.350,45.068,45.000,0.00,0.10,-272.73,-272.80,-8,986,-5,23.8,25.2,2.7,23.5,25.9,2.9,5.73,1.88,0.2,27.8
2015-07-08 00:16:00,0.0,1.89356,0.00053,390.893,0.029,0.9605,0.0020,140.001,45.000,34224.65498,1.91203,395.549,33.328,45.068,45.000,0.00,0.10,-272.73,-272.79,-8,985,-5,23.7,25.2,2.6,23.5,25.9,2.8,5.73,1.88,0.3,27.8
2015-07-08 00:17:00,0.0,1.89302,0.00058,390.846,0.041,0.9595,0.0017,140.004,45.000,34226.49185,1.91147,395.501,33.333,45.068,45.000,0.00,0.10,-272.72,-272.79,-8,985,-5,23.7,25.2,2.6,23.5,25.8,2.8,5.73,1.89,0.3,27.8
2015-07-08 00:18:00,0.0,1.89307,0.00055,390.857,0.067,0.9612,0.0018,140.001,45.000,34224.38246,1.91154,395.515,33.343,45.068,45.000,0.00,0.10,-272.73,-272.80,-8,986,-5,23.7,25.2,2.6,23.5,25.9,2.8,5.73,1.90,0.3,27.8
2015-07-08 00:19:00,0.0,1.89316,0.00073,390.857,0.046,0.9618,0.0016,140.000,45.000,34225.25513,1.91162,395.519,33.349,45.068,45.000,0.00,0.10,-272.73,-272.79,-8,986,-5,23.7,25.2,2.6,23.5,25.9,2.8,5.73,1.91,0.3,27.7
2015-07-08 00:20:00,0.0,1.89370,0.00053,390.820,0.073,0.9576,0.0023,139.997,45.000,34224.26203,1.91208,395.461,33.350,45.068,45.000,0.00,0.10,-272.73,-272.79,-8,985,-5,23.7,25.0,2.5,23.5,25.8,2.8,5.73,1.93,0.3,27.8
2015-07-08 00:21:00,0.0,1.89385,0.00039,390.954,0.049,0.9526,0.0014,140.000,45.000,34226.23593,1.91217,395.572,33.340,45.068,45.000,0.00,0.10,-272.73,-272.79,-8,986,-5,23.7,24.9,2.5,23.5,25.6,2.7,5.73,1.93,0.3,27.8
2015-07-08 00:22:00,0.0,1.89355,0.00063,390.852,0.069,0.9487,0.0024,140.005,45.000,34229.59598,1.91180,395.451,33.340,45.068,45.000,0.00,0.10,-272.73,-272.79,-8,985,-5,23.7,24.8,2.4,23.6,25.5,2.7,5.73,1.94,0.3,27.8
2015-07-08 00:23:00,0.0,1.89350,0.00048,390.919,0.097,0.9455,0.0018,139.997,45.000,34227.12893,1.91168,395.500,33.340,45.068,45.000,0.00,0.10,-272.73,-272.79,-8,986,-5,23.7,24.8,2.4,23.5,25.4,2.6,5.73,1.93,0.3,27.8
2015-07-08 00:24:00,0.0,1.89324,0.00043,390.946,0.045,0.9421,0.0019,140.003,45.000,34230.54975,1.91129,395.514,33.344,45.068,45.000,0.00,0.10,-272.73,-272.79,-7,986,-5,23.7,24.7,2.3,23.5,25.4,2.6,5.73,1.92,0.3,27.7
2015-07-08 00:25:00,0.0,1.89335,0.00036,390.856,0.065,0.9371,0.0023,139.998,45.000,34229.32563,1.91137,395.397,33.359,45.068,45.000,0.00,0.10,-272.73,-272.79,-8,986,-5,23.7,24.5,2.2,23.5,25.2,2.5,5.73,1.90,0.3,27.8
2015-07-08 00:26:00,0.0,1.89383,0.00052,390.723,0.062,0.9342,0.0019,140.004,45.000,34229.58956,1.91172,395.249,33.375,45.068,45.000,0.00,0.10,-272.73,-272.79,-8,986,-5,23.7,24.4,2.2,23.5,25.1,2.4,5.73,1.89,0.3,27.7
2015-07-08 00:27:00,0.0,1.89408,0.00037,390.614,0.048,0.9346,0.0020,140.002,45.000,34228.49615,1.91200,395.140,33.376,45.068,45.000,0.00,0.10,-272.72,-272.78,-8,986,-5,23.7,24.5,2.2,23.5,25.1,2.4,5.73,1.88,0.3,27.7
2015-07-08 00:28:00,0.0,1.89417,0.00022,390.524,0.036,0.9365,0.0014,140.002,45.000,34228.86699,1.91217,395.058,33.379,45.068,45.000,0.00,0.10,-272.73,-272.79,-8,986,-5,23.7,24.6,2.3,23.5,25.2,2.4,5.73,1.88,0.3,27.7
2015-07-08 00:29:00,0.0,1.89406,0.00053,390.523,0.075,0.9397,0.0016,140.000,45.000,34229.41616,1.91211,395.070,33.376,45.068,45.000,0.00,0.10,-272.73,-272.79,-8,986,-5,23.7,24.6,2.3,23.5,25.3,2.5,5.73,1.88,0.3,27.8
2015-07-08 00:30:00,0.0,1.89401,0.00044,390.479,0.087,0.9409,0.0019,139.999,45.000,34228.29660,1.91211,395.038,33.375,45.068,45.000,0.00,0.10,-272.72,-272.79,-8,986,-5,23.7,24.7,2.4,23.5,25.3,2.5,5.73,1.90,0.3,27.8
2015-07-08 00:31:00,0.0,1.89378,0.00044,390.611,0.121,0.9417,0.0026,139.995,45.000,34223.69331,1.91186,395.161,33.376,45.068,45.000,0.00,0.10,-272.73,-272.79,-8,986,-5,23.7,24.7,2.3,23.6,25.3,2.6,5.73,1.91,0.3,27.8
2015-07-08 00:32:00,0.0,1.89403,0.00048,390.694,0.088,0.9393,0.0026,140.001,45.000,34225.21621,1.91207,395.244,33.375,45.068,45.000,0.00,0.10,-272.73,-272.79,-8,986,-5,23.7,24.6,2.3,23.5,25.3,2.5,5.73,1.93,0.3,27.7
2015-07-08 00:33:00,0.0,1.89361,0.00063,390.608,0.201,0.9333,0.0018,140.001,45.000,34225.66546,1.91153,395.119,33.375,45.068,45.000,0.00,0.10,-272.73,-272.78,-8,986,-5,23.7,24.4,2.2,23.5,25.1,2.4,5.73,1.93,0.3,27.8
2015-07-08 00:34:00,0.0,1.89372,0.00042,390.835,0.181,0.9351,0.0027,139.998,45.000,34227.27695,1.91171,395.374,33.375,45.068,45.000,0.00,0.10,-272.73,-272.79,-8,986,-5,23.7,24.5,2.2,23.5,25.1,2.4,5.73,1.94,0.3,27.8
2015-07-08 00:35:00,0.0,1.89369,0.00043,390.740,0.175,0.9286,0.0028,140.002,45.000,34226.89011,1.91147,395.225,33.375,45.068,45.000,0.00,0.10,-272.74,-272.79,-8,986,-5,23.7,24.3,2.1,23.5,25.0,2.3,5.73,1.93,0.3,27.8
2015-07-08 00:36:00,0.0,1.89394,0.00037,390.971,0.043,0.9282,0.0024,140.002,45.000,34228.25231,1.91176,395.468,33.374,45.068,45.000,0.00,0.10,-272.73,-272.79,-8,985,-5,23.7,24.3,2.1,23.5,24.9,2.3,5.73,1.92,0.3,27.8
2015-07-08 00:37:00,0.0,1.89400,0.00064,390.744,0.070,0.9244,0.0016,140.007,45.000,34228.77535,1.91176,395.225,33.362,45.068,45.000,0.00,0.10,-272.72,-272.79,-8,986,-5,23.8,24.2,2.1,23.5,24.9,2.3,5.73,1.91,0.3,27.7
2015-07-08 00:38:00,0.0,1.89406,0.00054,390.828,0.173,0.9251,0.0024,140.005,45.000,34228.85238,1.91178,395.299,33.341,45.068,45.000,0.00,0.10,-272.73,-272.79,-7,986,-5,23.7,24.2,2.1,23.5,24.8,2.3,5.73,1.90,0.3,27.7
2015-07-08 00:39:00,0.0,1.89404,0.00050,390.956,0.048,0.9227,0.0031,139.998,45.000,34228.34718,1.91179,395.426,33.353,45.068,45.000,0.00,0.10,-272.73,-272.79,-8,986,-5,23.7,24.2,2.1,23.5,24.8,2.2,5.73,1.88,0.3,27.8
2015-07-08 00:40:00,0.0,1.89392,0.00059,390.771,0.083,0.9161,0.0015,139.999,45.000,34227.21199,1.91148,395.211,33.351,45.068,45.000,0.00,0.10,-272.73,-272.79,-8,986,-5,23.7,24.0,1.9,23.5,24.6,2.1,5.73,1.88,0.3,27.7
2015-07-08 00:41:00,0.0,1.89464,0.00055,390.732,0.105,0.9193,0.0024,140.002,45.000,34226.00697,1.91228,395.181,33.372,45.068,45.000,0.00,0.10,-272.73,-272.79,-8,986,-5,23.7,24.1,2.0,23.5,24.7,2.2,5.73,1.88,0.3,27.7
2015-07-08 00:42:00,0.0,1.89455,0.00034,390.817,0.057,0.9196,0.0015,140.000,45.000,34225.94756,1.91221,395.270,33.375,45.068,45.000,0.00,0.10,-272.73,-272.80,-8,986,-5,23.7,24.1,2.0,23.5,24.7,2.2,5.73,1.89,0.2,27.8
2015-07-08 00:43:00,0.0,1.89442,0.00050,390.818,0.099,0.9151,0.0027,140.003,45.000,34229.84092,1.91199,395.244,33.365,45.068,45.000,0.00,0.10,-272.72,-272.79,-8,986,-5,23.8,24.0,2.0,23.5,24.6,2.1,5.73,1.90,0.3,27.8
2015-07-08 00:44:00,0.0,1.89461,0.00043,390.798,0.050,0.9154,0.0014,140.003,45.000,34229.48456,1.91218,395.233,33.349,45.068,45.000,0.00,0.10,-272.72,-272.80,-8,986,-5,23.7,23.9,1.9,23.5,24.6,2.1,5.73,1.92,0.3,27.7
2015-07-08 00:45:00,0.0,1.89423,0.00056,390.611,0.108,0.9150,0.0024,140.003,45.000,34226.95316,1.91176,395.045,33.321,45.068,45.000,0.00,0.10,-272.73,-272.79,-8,986,-5,23.7,23.9,1.9,23.5,24.6,2.1,5.73,1.92,0.3,27.7
2015-07-08 00:46:00,0.0,1.89393,0.00064,390.290,0.063,0.9175,0.0028,139.996,45.000,34226.05474,1.91162,394.726,33.310,45.068,45.000,0.00,0.10,-272.73,-272.79,-8,986,-5,23.7,24.0,2.0,23.5,24.6,2.1,5.73,1.93,0.3,27.8
2015-07-08 00:47:00,0.0,1.89419,0.00059,390.439,0.058,0.9214,0.0025,140.001,45.000,34228.08369,1.91181,394.885,33.308,45.068,45.000,0.00,0.10,-272.73,-272.78,-8,986,-5,23.7,24.2,2.1,23.5,24.8,2.2,5.73,1.93,0.2,27.8
2015-07-08 00:48:00,0.0,1.89450,0.00042,390.553,0.049,0.9231,0.0016,140.001,45.000,34226.50171,1.91225,395.018,33.279,45.068,45.000,0.00,0.10,-272.73,-272.79,-8,986,-5,23.7,24.2,2.1,23.5,24.8,2.3,5.73,1.92,0.3,27.8
2015-07-08 00:49:00,0.0,1.89453,0.00039,390.650,0.048,0.9212,0.0018,140.001,45.000,34226.83471,1.91216,395.105,33.261,45.068,45.000,0.00,0.10,-272.74,-272.79,-8,986,-5,23.7,24.1,2.0,23.5,24.8,2.2,5.73,1.92,0.3,27.8
2015-07-08 00:50:00,0.0,1.89434,0.00058,390.728,0.055,0.9188,0.0025,140.001,45.000,34226.58831,1.91201,395.173,33.258,45.069,45.001,0.00,0.10,-272.73,-272.78,-8,986,-5,23.7,24.1,2.0,23.5,24.7,2.2,5.73,1.90,0.3,27.8
2015-07-08 00:51:00,0.0,1.89457,0.00051,390.760,0.079,0.9180,0.0020,140.000,45.000,34225.87356,1.91222,395.206,33.250,45.069,45.001,0.00,0.10,-272.73,-272.79,-8,986,-5,23.7,24.0,2.0,23.5,24.7,2.2,5.73,1.89,0.3,27.7
2015-07-08 00:52:00,0.0,1.89455,0.00059,390.742,0.084,0.9169,0.0013,139.997,45.000,34224.27381,1.91211,395.175,33.261,45.068,45.000,0.00,0.10,-272.73,-272.79,-8,985,-5,23.7,24.0,1.9,23.5,24.6,2.1,5.73,1.89,0.3,27.7
2015-07-08 00:53:00,0.0,1.89506,0.00045,390.849,0.026,0.9164,0.0015,139.999,45.000,34223.61242,1.91267,395.284,33.273,45.068,45.000,0.00,0.10,-272.73,-272.79,-8,986,-5,23.7,24.0,2.0,23.5,24.6,2.1,5.73,1.88,0.3,27.7
2015-07-08 00:54:00,0.0,1.89508,0.00054,390.775,0.041,0.9133,0.0019,139.999,45.000,34222.76294,1.91260,395.196,33.311,45.068,45.000,0.00,0.10,-272.72,-272.79,-8,986,-5,23.7,23.9,1.9,23.5,24.6,2.1,5.73,1.88,0.3,27.7
2015-07-08 00:55:00,0.0,1.89539,0.00035,390.832,0.051,0.9123,0.0013,139.996,45.000,34223.35890,1.91290,395.249,33.313,45.068,45.000,0.00,0.10,-272.73,-272.80,-8,986,-5,23.7,23.9,1.9,23.5,24.5,2.1,5.73,1.89,0.3,27.8
2015-07-08 00:56:00,0.0,1.89493,0.00061,390.697,0.047,0.9121,0.0021,139.999,45.000,34225.82111,1.91249,395.110,33.312,45.068,45.000,0.00,0.10,-272.73,-272.80,-8,986,-5,23.7,23.9,1.9,23.5,24.5,2.1,5.73,1.90,0.2,27.8
2015-07-08 00:57:00,0.0,1.89447,0.00039,390.731,0.045,0.9139,0.0027,140.003,45.000,34227.59079,1.91196,395.151,33.310,45.068,45.000,0.00,0.10,-272.72,-272.79,-8,986,-5,23.7,23.9,1.9,23.5,24.6,2.1,5.73,1.91,0.3,27.8
2015-07-08 00:58:00,0.0,1.89441,0.00053,390.748,0.026,0.9147,0.0017,139.999,45.000,34226.08625,1.91200,395.175,33.313,45.068,45.000,0.00,0.10,-272.73,-272.79,-8,985,-5,23.7,23.9,1.9,23.5,24.6,2.1,5.73,1.92,0.3,27.8
2015-07-08 00:59:00,0.0,1.89454,0.00027,390.725,0.126,0.9161,0.0017,140.003,45.000,34226.09569,1.91213,395.163,33.313,45.068,45.000,0.00,0.10,-272.73,-272.80,-8,985,-5,23.7,24.0,1.9,23.5,24.6,2.1,5.73,1.92,0.3,27.8
2015-07-08 01:00:00,0.0,1.89488,0.00052,390.557,0.060,0.9142,0.0030,140.002,45.000,34224.94317,1.91240,394.974,33.315,45.068,45.000,0.00,0.10,-272.73,-272.79,-8,986,-5,23.7,23.9,1.9,23.5,24.6,2.1,5.73,1.93,0.3,27.7
2015-07-08 01:01:00,0.0,1.89459,0.00054,390.568,0.074,0.9153,0.0020,140.001,45.000,34222.11920,1.91214,395.000,33.325,45.068,45.000,0.00,0.10,-272.73,-272.79,-8,986,-5,23.7,24.0,1.9,23.5,24.6,2.1,5.73,1.93,0.3,27.8
2015-07-08 01:02:00,0.0,1.89557,0.00042,390.687,0.095,0.9158,0.0024,140.001,45.000,34222.95527,1.91319,395.115,33.343,45.068,45.000,0.00,0.10,-272.73,-272.79,-8,986,-5,23.7,24.0,1.9,23.5,24.6,2.1,5.73,1.92,0.3,27.7
2015-07-08 01:03:00,0.0,1.89505,0.00042,390.586,0.130,0.9140,0.0022,140.002,45.000,34224.15035,1.91258,395.010,33.361,45.068,45.000,0.00,0.10,-272.73,-272.79,-8,986,-5,23.7,23.9,1.9,23.5,24.6,2.1,5.73,1.91,0.3,27.7
2015-07-08 01:04:00,0.0,1.89498,0.00050,390.430,0.131,0.9140,0.0019,139.999,45.000,34224.09032,1.91251,394.850,33.370,45.068,45.000,0.00,0.10,-272.73,-272.79,-8,986,-5,23.7,23.9,1.9,23.5,24.6,2.1,5.73,1.90,0.3,27.8
2015-07-08 01:05:00,0.0,1.89491,0.00056,390.510,0.045,0.9186,0.0025,139.999,45.000,34222.46274,1.91252,394.950,33.371,45.068,45.000,0.00,0.10,-272.73,-272.79,-8,986,-5,23.7,24.1,2.0,23.5,24.7,2.2,5.73,1.89,0.3,27.8
2015-07-08 01:06:00,0.0,1.89532,0.00039,390.560,0.023,0.9194,0.0016,139.996,45.000,34222.23254,1.91304,395.008,33.365,45.068,45.000,0.00,0.10,-272.73,-272.79,-8,986,-5,23.7,24.0,1.9,23.5,24.7,2.1,5.73,1.88,0.3,27.8
2015-07-08 01:07:00,0.0,1.89566,0.00069,390.443,0.087,0.9139,0.0018,140.000,45.000,34224.92580,1.91312,394.863,33.370,45.068,45.000,0.00,0.10,-272.72,-272.79,-8,986,-5,23.8,24.0,1.9,23.6,24.6,2.1,5.73,1.88,0.3,27.8
2015-07-08 01:08:00,0.0,1.89635,0.00057,390.483,0.067,0.9172,0.0018,140.003,45.000,34225.86690,1.91396,394.916,33.349,45.068,45.000,0.00,0.10,-272.73,-272.79,-8,986,-5,23.7,24.0,2.0,23.5,24.6,2.2,5.73,1.88,0.3,27.8
2015-07-08 01:09:00,0.0,1.89618,0.00057,390.571,0.063,0.9161,0.0016,140.000,45.000,34224.81364,1.91377,395.006,33.350,45.068,45.000,0.00,0.10,-272.73,-272.80,-8,986,-5,23.7,24.0,1.9,23.5,24.6,2.1,5.73,1.89,0.3,27.7
2015-07-08 01:10:00,0.0,1.89620,0.00036,390.475,0.055,0.9137,0.0015,140.001,45.000,34226.11340,1.91378,394.891,33.331,45.068,45.000,0.00,0.10,-272.73,-272.79,-8,986,-5,23.7,23.9,1.9,23.5,24.6,2.1,5.73,1.90,0.3,27.8
2015-07-08 01:11:00,0.0,1.89519,0.00060,390.463,0.120,0.9149,0.0021,139.995,45.000,34224.53642,1.91287,394.888,33.326,45.068,45.000,0.00,0.10,-272.73,-272.79,-8,986,-5,23.7,24.0,1.9,23.5,24.6,2.1,5.73,1.91,0.3,27.7
2015-07-08 01:12:00,0.0,1.89499,0.00036,390.631,0.093,0.9195,0.0024,140.001,45.000,34223.56189,1.91263,395.068,33.351,45.068,45.000,0.00,0.10,-272.73,-272.79,-8,986,-5,23.7,24.1,2.0,23.5,24.7,2.2,5.73,1.92,0.3,27.7
2015-07-08 01:13:00,0.0,1.89459,0.00034,390.712,0.137,0.9234,0.0021,139.998,45.000,34225.11158,1.91229,395.190,33.367,45.068,45.000,0.00,0.10,-272.73,-272.79,-8,986,-5,23.7,24.2,2.0,23.5,24.8,2.3,5.73,1.92,0.3,27.8
2015-07-08 01:14:00,0.0,1.89540,0.00064,390.536,0.064,0.9200,0.0022,140.000,45.000,34224.30368,1.91301,394.983,33.375,45.068,45.000,0.00,0.10,-272.73,-272.79,-8,986,-5,23.7,24.1,2.0,23.5,24.7,2.2,5.73,1.93,0.3,27.7
2015-07-08 01:15:00,0.0,1.89517,0.00063,390.662,0.058,0.9201,0.0024,140.005,45.000,34223.09019,1.91291,395.112,33.375,45.068,45.000,0.00,0.10,-272.73,-272.79,-8,985,-5,23.7,24.1,2.0,23.5,24.7,2.2,5.73,1.93,0.3,27.8
2015-07-08 01:16:00,0.0,1.89520,0.00036,390.638,0.033,0.9246,0.0022,139.999,45.000,34219.40671,1.91298,395.111,33.375,45.068,45.000,0.00,0.10,-272.73,-272.79,-8,986,-5,23.8,24.3,2.1,23.5,24.8,2.3,5.73,1.92,0.3,27.7
2015-07-08 01:17:00,0.0,1.89445,0.00052,390.724,0.039,0.9247,0.0016,140.001,45.000,34222.06699,1.91222,395.198,33.375,45.068,45.000,0.00,0.10,-272.73,-272.79,-8,985,-5,23.7,24.2,2.1,23.5,24.9,2.3,5.73,1.91,0.2,27.8
2015-07-08 01:18:00,0.0,1.89425,0.00059,390.727,0.039,0.9287,0.0021,139.994,45.000,34220.69532,1.91207,395.223,33.385,45.068,45.000,0.00,0.10,-272.73,-272.79,-8,986,-5,23.7,24.3,2.1,23.5,24.9,2.3,5.73,1.91,0.3,27.8
2015-07-08 01:19:00,0.0,1.89457,0.00035,390.758,0.050,0.9298,0.0019,140.001,45.000,34220.14534,1.91243,395.257,33.379,45.068,45.000,0.00,0.10,-272.73,-272.80,-8,986,-5,23.7,24.3,2.1,23.5,25.0,2.3,5.73,1.89,0.3,27.8
2015-07-08 01:20:00,0.0,1.89436,0.00062,390.696,0.083,0.9304,0.0017,139.999,45.000,34223.19474,1.91219,395.205,33.375,45.068,45.000,0.00,0.10,-272.73,-272.79,-8,985,-5,23.7,24.4,2.2,23.5,25.0,2.3,5.73,1.89,0.3,27.8
2015-07-08 01:21:00,0.0,1.89452,0.00032,390.608,0.064,0.9295,0.0023,140.000,45.000,34220.85841,1.91240,395.109,33.362,45.068,45.000,0.00,0.10,-272.73,-272.78,-8,985,-5,23.7,24.4,2.2,23.5,25.0,2.4,5.73,1.88,0.2,27.8
2015-07-08 01:22:00,0.0,1.89423,0.00040,390.402,0.074,0.9327,0.0017,139.997,45.000,34221.71555,1.91215,394.910,33.342,45.068,45.000,0.00,0.10,-272.73,-272.79,-8,985,-5,23.7,24.4,2.2,23.5,25.0,2.4,5.73,1.88,0.3,27.8
2015-07-08 01:23:00,0.0,1.89421,0.00045,390.587,0.042,0.9368,0.0027,140.002,45.000,34224.32821,1.91220,395.118,33.319,45.068,45.000,0.00,0.10,-272.73,-272.79,-8,985,-5,23.7,24.5,2.2,23.5,25.2,2.4,5.73,1.88,0.3,27.8
2015-07-08 01:24:00,0.0,1.89401,0.00032,390.662,0.028,0.9406,0.0012,140.002,45.000,34224.48789,1.91207,395.215,33.336,45.068,45.000,0.00,0.10,-272.72,-272.79,-7,985,-5,23.7,24.7,2.3,23.5,25.3,2.5,5.73,1.89,0.3,27.8
2015-07-08 01:25:00,0.0,1.89379,0.00044,390.631,0.071,0.9382,0.0027,139.999,45.000,34221.96658,1.91181,395.177,33.333,45.068,45.000,0.00,0.10,-272.73,-272.79,-8,986,-5,23.7,24.6,2.3,23.5,25.2,2.5,5.73,1.90,0.3,27.8
2015-07-08 01:26:00,0.0,1.89384,0.00059,390.555,0.071,0.9361,0.0022,140.001,45.000,34223.32396,1.91179,395.084,33.322,45.068,45.000,0.00,0.10,-272.74,-272.79,-8,986,-5,23.7,24.5,2.2,23.5,25.2,2.4,5.73,1.92,0.3,27.8
2015-07-08 01:27:00,0.0,1.89428,0.00048,390.662,0.041,0.9377,0.0021,139.999,45.000,34222.07953,1.91234,395.201,33.342,45.068,45.000,0.00,0.10,-272.73,-272.79,-8,986,-5,23.7,24.6,2.3,23.5,25.2,2.5,5.73,1.92,0.3,27.8
2015-07-08 01:28:00,0.0,1.89452,0.00030,390.683,0.054,0.9371,0.0029,139.997,45.000,34220.57959,1.91249,395.224,33.364,45.068,45.000,0.00,0.10,-272.73,-272.79,-8,985,-5,23.7,24.5,2.3,23.6,25.2,2.5,5.73,1.93,0.3,27.8
2015-07-08 01:29:00,0.0,1.89460,0.00057,390.623,0.131,0.9358,0.0013,140.004,45.000,34221.64621,1.91256,395.149,33.362,45.068,45.000,0.00,0.10,-272.74,-272.80,-8,985,-5,23.7,24.5,2.2,23.6,25.1,2.5,5.73,1.92,0.3,27.8
2015-07-08 01:30:00,0.0,1.89469,0.00038,390.738,0.087,0.9374,0.0022,140.002,45.000,34221.04120,1.91272,395.275,33.365,45.068,45.000,0.00,0.10,-272.73,-272.79,-8,985,-5,23.8,24.5,2.3,23.5,25.1,2.4,5.73,1.93,0.3,27.8
2015-07-08 01:31:00,0.0,1.89483,0.00057,390.700,0.119,0.9370,0.0023,139.998,45.000,34220.90456,1.91287,395.248,33.368,45.068,45.000,0.00,0.10,-272.73,-272.79,-8,986,-5,23.7,24.6,2.3,23.5,25.2,2.4,5.73,1.92,0.3,27.8
2015-07-08 01:32:00,0.0,1.89486,0.00051,390.537,0.098,0.9332,0.0014,139.998,45.000,34223.30928,1.91278,395.052,33.345,45.068,45.000,0.00,0.10,-272.73,-272.79,-8,986,-5,23.7,24.4,2.2,23.5,25.1,2.4,5.73,1.91,0.3,27.8
2015-07-08 01:33:00,0.0,1.89452,0.00033,390.416,0.117,0.9371,0.0022,139.999,45.000,34222.56212,1.91250,394.953,33.333,45.068,45.000,0.00,0.10,-272.73,-272.79,-8,986,-5,23.7,24.5,2.3,23.5,25.1,2.4,5.73,1.90,0.3,27.8
2015-07-08 01:34:00,0.0,1.89454,0.00064,390.333,0.090,0.9405,0.0015,139.998,45.000,34222.04418,1.91261,394.877,33.350,45.068,45.000,0.00,0.10,-272.72,-272.79,-8,986,-5,23.7,24.7,2.3,23.5,25.3,2.5,5.73,1.90,0.3,27.8
2015-07-08 01:35:00,0.0,1.89529,0.00063,390.442,0.067,0.9440,0.0020,139.999,45.000,34223.86197,1.91331,395.013,33.362,45.068,45.000,0.00,0.10,-272.73,-272.79,-8,986,-5,23.7,24.7,2.3,23.5,25.4,2.5,5.73,1.89,0.3,27.8
2015-07-08 01:36:00,0.0,1.89783,0.00083,390.188,0.055,0.9412,0.0028,139.997,45.000,34223.92138,1.91591,394.743,33.368,45.068,45.000,0.00,0.10,-272.73,-272.79,-8,985,-5,23.7,24.6,2.3,23.5,25.3,2.5,5.73,1.88,0.3,27.8
2015-07-08 01:37:00,0.0,1.89724,0.00078,390.111,0.147,0.9403,0.0019,140.000,45.000,34223.97642,1.91542,394.657,33.368,45.068,45.000,0.00,0.10,-272.72,-272.79,-8,986,-5,23.8,24.6,2.3,23.5,25.3,2.5,5.73,1.88,0.3,27.7
2015-07-08 01:38:00,0.0,1.89623,0.00044,390.506,0.173,0.9433,0.0029,140.003,45.000,34223.82278,1.91439,395.061,33.360,45.068,45.000,0.00,0.10,-272.73,-272.79,-8,985,-5,23.7,24.7,2.4,23.5,25.4,2.6,5.73,1.89,0.3,27.8
2015-07-08 01:39:00,0.0,1.89578,0.00036,390.764,0.032,0.9300,0.0056,140.002,45.000,34221.84937,1.91368,395.267,33.370,45.068,45.000,0.00,0.10,-272.73,-272.79,-8,985,-5,23.7,24.3,2.1,23.6,25.1,2.4,5.73,1.89,0.3,27.8
2015-07-08 01:40:00,0.0,1.89561,0.00035,390.847,0.043,0.9168,0.0033,139.999,45.000,34220.89006,1.91322,395.285,33.371,45.068,45.000,0.00,0.10,-272.73,-272.79,-8,986,-5,23.7,23.9,1.9,23.5,24.7,2.2,5.73,1.91,0.3,27.8
2015-07-08 01:41:00,0.0,1.89597,0.00027,390.848,0.039,0.9132,0.0022,140.003,45.000,34220.12027,1.91349,395.267,33.373,45.068,45.000,0.00,0.10,-272.72,-272.78,-8,986,-5,23.7,23.9,1.9,23.5,24.5,2.1,5.73,1.92,0.3,27.7
2015-07-08 01:42:00,0.0,1.89569,0.00049,390.910,0.041,0.9141,0.0019,139.999,45.000,34219.59376,1.91328,395.333,33.364,45.068,45.000,0.00,0.10,-272.73,-272.79,-8,986,-5,23.7,23.9,1.9,23.5,24.6,2.1,5.73,1.92,0.3,27.8
2015-07-08 01:43:00,0.0,1.89539,0.00048,390.940,0.056,0.9169,0.0020,140.001,45.000,34221.88986,1.91301,395.378,33.333,45.068,45.000,0.00,0.10,-272.74,-272.79,-8,986,-5,23.7,24.0,2.0,23.5,24.6,2.1,5.73,1.93,0.3,27.8
2015-07-08 01:44:00,0.0,1.89546,0.00052,390.907,0.051,0.9166,0.0019,139.999,45.000,34219.22365,1.91303,395.348,33.313,45.068,45.000,0.00,0.10,-272.73,-272.78,-8,986,-5,23.7,24.0,1.9,23.5,24.6,2.1,5.73,1.93,0.3,27.8
2015-07-08 01:45:00,0.0,1.89632,0.00053,390.860,0.046,0.9142,0.0027,139.997,45.000,34219.89510,1.91384,395.283,33.315,45.068,45.000,0.00,0.10,-272.73,-272.79,-8,985,-5,23.7,23.9,1.9,23.5,24.6,2.1,5.73,1.92,0.3,27.8
2015-07-08 01:46:00,0.0,1.89628,0.00062,390.872,0.073,0.9161,0.0035,139.996,45.000,34220.32871,1.91387,395.309,33.315,45.068,45.000,0.00,0.10,-272.73,-272.79,-8,986,-5,23.7,24.0,1.9,23.5,24.6,2.1,5.73,1.92,0.3,27.8
2015-07-08 01:47:00,0.0,1.89640,0.00029,390.762,0.033,0.9189,0.0021,140.003,45.000,34223.56193,1.91408,395.208,33.318,45.068,45.000,0.00,0.10,-272.73,-272.79,-8,986,-5,23.8,24.1,2.0,23.5,24.7,2.2,5.73,1.91,0.3,27.8
2015-07-08 01:48:00,0.0,1.89647,0.00043,390.850,0.118,0.9173,0.0017,139.999,45.000,34221.26906,1.91412,395.288,33.339,45.068,45.000,0.00,0.10,-272.72,-272.78,-8,986,-5,23.7,24.0,2.0,23.5,24.7,2.2,5.73,1.90,0.3,27.8